Location: Poughquag
(41.6090°N, 73.6820°W)
Time: 07:41:22
(UTC-05:00)

Altair - Pass Details

Date: 30 November 2023
Orbit: 1501 x 1682 km, 47.2° (Epoch: 02 March)

Event Time Altitude Azimuth Distance (km) Brightness Sun altitude
Rises 14:15:28 0° 293° (WNW) 4,692 10.2 17.6°
Reaches altitude 10° 14:18:32 10° 294° (WNW) 3,691 9.7 17.2°
Maximum altitude 14:27:50 84° 24° (NNE) 1,514 7.7 16.1°
Drops below altitude 10° 14:37:02 10° 113° (ESE) 3,653 9.3 15.0°
Sets 14:40:03 0° 114° (ESE) 4,641 9.8 14.6°
